[ hide orbit diagram ]
For accurate long-term ephemerides, please instead use our Horizons system.This orbit viewer was implemented using two-body methods, and hence should not be used for determining accurate long-term trajectories (over several years or decades) or planetary encounter circumstances.
Orbital Elements at Epoch 2459000.5 (2020-May-31.0) TDB
Reference: JPL 22 (heliocentric ecliptic J2000)
Element | Value | Uncertainty (1-sigma) | Units |
e | .05950007468731515 | 3.398e-08 | |
a | 2.427039420861159 | 1.2714e-08 | au |
q | 2.282630394050861 | 8.0685e-08 | au |
i | 5.168459867531106 | 4.3531e-06 | deg |
node | 339.353545932797 | 4.7987e-05 | deg |
peri | 50.68083285075327 | 6.3621e-05 | deg |
M | 109.3697485560264 | 4.2707e-05 | deg |
tp | 2458580.926176662042 (2019-Apr-07.42617666) | 0.00016313 | TDB |
period | 1381.063579242747 3.78 | 1.0852e-05 2.971e-08 | d yr |
n | .2606686653755593 | 2.0483e-09 | deg/d |
Q | 2.571448447671456 | 1.3471e-08 | au |
|
| | Orbit Determination Parameters
Additional Information
|
[ show covariance matrix ]
Physical Parameter Table
Parameter |
Symbol |
Value |
Units |
Sigma |
Reference |
Notes |
absolute magnitude |
H |
15.9 |
|
n/a |
MPO453211 |
|
|
78868 (2003 QE87) Discovered 2003-Aug-25 by LINEAR at Socorro |
Reference: 20040415/Numbers.arc | Last Updated: 2004-04-19 |
|
[ show close-approach data ]
|